Back to catalog

CZ-4C DEB

AliveSSO
NORAD 43265·DEBRIS·🇨🇳 China

Launched Mar 31, 2018 from Taiyuan Satellite Launch Center

Loading…

Next Passes (next 24 hours)

TLE

FreshSource: Space-Track

Epoch: Sep 14, 2026, 04:29 UTC

1 43265U 18031G   26257.18749990  .00005925  00000-0  42240-3 0  9998
2 43265  97.7652 341.5554 0007678 329.6969  30.3812 15.04935442457827

Track CZ-4C DEB in real time with AllMySat

Download on the App Store